Regional Weather Roundup
Issued by NWS

Home | Current Version | Previous Version | Graphics & Text | Print | Product List | Glossary On
Versions: 1 2 3 4 5 6 7 8 9 10 11 12 13 14 15 16 17 18 19 20 21 22 23 24 25 26 27 28 29 30 31 32 33 34 35 36 37 38 39 40 41 42 43 44 45 46 47 48 49 50
000
ASUS45 KBOU 272307
RWRCO

WEATHER ROUNDUP FOR COLORADO
NATIONAL WEATHER SERVICE DENVER/BOULDER CO
500 PM MDT MON APR 27 2015

NOTE: "FAIR" INDICATES FEW OR NO CLOUDS BELOW 12000 FEET WITH NO
SIGNIFICANT WEATHER AND/OR OBSTRUCTIONS TO VISIBILITY.

COZ001>005-013-030-031-280000-
...NORTHWEST COLORADO...

CITY           SKY/WX    TMP DP  RH WIND       PRES   REMARKS
CRAIG          PTSUNNY   57  39  51 N15G23    30.15F
HAYDEN         CLOUDY    52  36  54 NE6       30.16R
MEEKER         CLOUDY    54  38  54 N8        30.17S
MOUNT WERNER   NOT AVBL
STEAMBOAT SPGS MOSUNNY   51  35  53 W16G22    30.15R
WALDEN         CLOUDY    50  28  43 E10       30.19S
$$

COZ006>008-011-280000-
...WEST CENTRAL VALLEYS...

CITY           SKY/WX    TMP DP  RH WIND       PRES   REMARKS
GRAND JUNCTION MOSUNNY   64  41  42 W17G23    30.06F
MONTROSE       MOSUNNY   62  36  37 NW13G21   30.08F
EAGLE          PTSUNNY   57  32  38 NE14      30.13S
RIFLE          PTSUNNY   64  38  38 NW18G25   30.08S
DELTA          PTSUNNY   65  35  32 MISG      30.05F THUNDER
NUCLA          MOSUNNY   64  28  25 N6G24     30.09F
$$

COZ017>023-064>068-280000-
...SOUTHWEST COLORADO...

CITY           SKY/WX    TMP DP  RH WIND       PRES   REMARKS
DURANGO        CLOUDY    51  41  68 E6        30.07S
CORTEZ         PTSUNNY   66  29  24 N6        30.02F
PAGOSA SPRINGS CLOUDY    53  32  44 W5        30.11R
TELLURIDE      MOSUNNY   50  31  48 CALM      30.16S
WOLF CREEK PAS NOT AVBL
$$

COZ009-010-012-014-032>034-037-058>063-280000-
...CENTRAL COLORADO...

CITY           SKY/WX    TMP DP  RH WIND       PRES   REMARKS
ASPEN          PTSUNNY   58  32  37 NE9       30.13S
BUENA VISTA    PTSUNNY   48  29  46 E8        30.23S
COPPER MTN     CLOUDY    37  28  70 NE10      30.31S
BERTHOUD PASS  HAZE      23  16  74 E16G23    30.35S VSB<1/4 WCI  10
COTTONWOOD PAS CLOUDY    41  32  70 E6        30.28S
GUNNISON       PTSUNNY   55  27  33 NE14      30.14S
KREMMLING      CLOUDY    50  36  57 S8        30.20R
LEADVILLE      CLOUDY    38  27  64 CALM      30.24R
MONARCH PASS   CLOUDY    28  27  93 E25G36    30.36S WCI  14
SALIDA         CLOUDY    46  37  69 E10       30.30S
SUNLIGHT       MOSUNNY   36  30  80 NW5       30.30R THUNDER
WILKERSON PASS HVY SNOW  28  27  93 E9        30.33S VSB<1/4 WCI  20
$$

COZ069>075-280000-
...SAN LUIS VALLEY/SANGRE DE CRISTO MOUNTAINS...

CITY           SKY/WX    TMP DP  RH WIND       PRES   REMARKS
ALAMOSA        CLOUDY    50  25  37 NE21G26   30.14R
LA VETA PASS   SNOW      28  27  93 MISG      30.24R VSB 1/4
SAGUACHE       MOSUNNY   52  28  40 E15G29    30.16R
$$

COZ035-036-038>040-280000-
...NORTHERN COLORADO FRONT RANGE...

CITY           SKY/WX    TMP DP  RH WIND       PRES   REMARKS
DENVER INTL AP CLOUDY    45  40  82 NE6       30.27F
DMNS CITY PARK   N/A     46  39  74 NE6       30.27S
AURORA         CLOUDY    44  43  99 NE6       30.28S
FRONT RANGE AP CLOUDY    46  43  87 N6        30.28S
ERIE MUNI ARPT CLOUDY    49  41  75 E6        30.27F
BOULDER MUN AP CLOUDY    46  41  81 NE6       30.27S
CENTENNIAL     CLOUDY    44  39  82 NE6       30.27S
BROOMFIELD     CLOUDY    46  41  81 VRB5      30.28S
FORT COLLINS   PTSUNNY   48  39  71 NE9       30.29S
LONGMONT       CLOUDY    51  41  68 CALM      30.29S
$$

COZ041-046-047-076>085-087-088-280000-
...PIKES PEAK/PALMER DIVIDE AND SOUTHERN FOOTHILLS...

CITY           SKY/WX    TMP DP  RH WIND       PRES   REMARKS
COLO. SPRINGS  CLOUDY    45  38  76 N21       30.25S
A. F. ACADEMY  DRIZZLE   41  38  86 NW15      30.26S
ELLICOTT       CLOUDY   N/A N/A N/A NE18G26   30.23S
FALCON         CLOUDY    46  35  65 N13G20    30.26F
FORT CARSON    PTSUNNY   50  36  59 NE20      30.22F
LIMON          CLOUDY    49  33  54 N18       30.24R
MONUMENT HILL  DRIZZLE   36  34  93 N8        30.27R
TRINIDAD       CLOUDY    45  37  73 N16       30.21R
$$

COZ042>045-048>051-090-091-280000-
...NORTHEAST COLORADO...

CITY           SKY/WX    TMP DP  RH WIND       PRES   REMARKS
GREELEY ARPT   CLOUDY    46  37  71 CALM      30.29S
AKRON          CLOUDY    54  36  50 N13G18    30.24S
BURLINGTON     MOSUNNY   57  30  35 NE23      30.19S
WRAY           PTSUNNY   60  30  32 N12G18    30.21S
STERLING       PTSUNNY   57  37  47 N7        30.23S
HOLYOKE        PTSUNNY   61  34  36 N12       30.21F
FORT MORGAN    CLOUDY    53  33  47 N7        30.26S
$$

COZ086-089-092>099-280000-
...SOUTHEAST COLORADO...

CITY           SKY/WX    TMP DP  RH WIND       PRES   REMARKS
PUEBLO         PTSUNNY   55  37  50 N15       30.21F
LA JUNTA       CLOUDY    57  31  37 N16       30.17R
LAMAR          CLOUDY    57  32  38 NE21      30.14S
SPRINGFIELD      N/A     48  33  56 NE21G28   30.15R
$$



USA.gov is the U.S. government's official web portal to all federal, state and local government web resources and services.